Year,Month,Day,Hour,Minute,Value (Times are PST for windgust in km/hr)
2008,12,26,00,00,0.00
2008,12,26,00,01,0.00
2008,12,26,00,02,0.00
2008,12,26,00,03,0.00
2008,12,26,00,04,0.00
2008,12,26,00,05,0.00
2008,12,26,00,06,0.00
2008,12,26,00,07,0.00
2008,12,26,00,08,0.00
2008,12,26,00,09,0.00
2008,12,26,00,10,0.00
2008,12,26,00,11,0.00
2008,12,26,00,12,0.00
2008,12,26,00,13,0.00
2008,12,26,00,14,0.00
2008,12,26,00,15,0.00
2008,12,26,00,16,0.00
2008,12,26,00,17,0.00
2008,12,26,00,18,0.00
2008,12,26,00,19,1.60
2008,12,26,00,20,3.20
2008,12,26,00,21,3.20
2008,12,26,00,22,1.60
2008,12,26,00,23,1.60
2008,12,26,00,24,1.60
2008,12,26,00,25,1.60
2008,12,26,00,26,1.60
2008,12,26,00,27,0.00
2008,12,26,00,28,0.00
2008,12,26,00,29,0.00
2008,12,26,00,30,0.00
2008,12,26,00,31,3.20
2008,12,26,00,32,3.20
2008,12,26,00,33,4.80
2008,12,26,00,34,4.80
2008,12,26,00,35,4.80
2008,12,26,00,36,3.20
2008,12,26,00,37,1.60
2008,12,26,00,38,1.60
2008,12,26,00,39,0.00
2008,12,26,00,40,1.60
2008,12,26,00,41,0.00
2008,12,26,00,42,0.00
2008,12,26,00,43,0.00
2008,12,26,00,44,1.60
2008,12,26,00,45,0.00
2008,12,26,00,46,1.60
2008,12,26,00,47,0.00
2008,12,26,00,48,0.00
2008,12,26,00,49,0.00
2008,12,26,00,50,0.00
2008,12,26,00,51,1.60
2008,12,26,00,52,0.00
2008,12,26,00,53,0.00
2008,12,26,00,54,1.60
2008,12,26,00,55,3.20
2008,12,26,00,56,1.60
2008,12,26,00,57,1.60
2008,12,26,00,58,0.00
2008,12,26,00,59,0.00
2008,12,26,01,00,0.00
2008,12,26,01,01,0.00
2008,12,26,01,02,0.00
2008,12,26,01,03,0.00
2008,12,26,01,04,0.00
2008,12,26,01,05,0.00
2008,12,26,01,06,0.00
2008,12,26,01,07,0.00
2008,12,26,01,08,0.00
2008,12,26,01,09,0.00
2008,12,26,01,10,3.20
2008,12,26,01,11,3.20
2008,12,26,01,12,0.00
2008,12,26,01,13,1.60
2008,12,26,01,14,0.00
2008,12,26,01,15,1.60
2008,12,26,01,16,0.00
2008,12,26,01,17,0.00
2008,12,26,01,18,3.20
2008,12,26,01,19,3.20
2008,12,26,01,20,1.60
2008,12,26,01,21,1.60
2008,12,26,01,22,0.00
2008,12,26,01,23,0.00
2008,12,26,01,24,1.60
2008,12,26,01,25,1.60
2008,12,26,01,26,1.60
2008,12,26,01,27,3.20
2008,12,26,01,28,1.60
2008,12,26,01,29,1.60
2008,12,26,01,30,3.20
2008,12,26,01,31,3.20
2008,12,26,01,32,3.20
2008,12,26,01,33,3.20
2008,12,26,01,34,1.60
2008,12,26,01,35,3.20
2008,12,26,01,36,1.60
2008,12,26,01,37,1.60
2008,12,26,01,38,0.00
2008,12,26,01,39,0.00
2008,12,26,01,40,0.00
2008,12,26,01,41,0.00
2008,12,26,01,42,4.80
2008,12,26,01,43,4.80
2008,12,26,01,44,3.20
2008,12,26,01,45,6.40
2008,12,26,01,46,1.60
2008,12,26,01,47,3.20
2008,12,26,01,48,1.60
2008,12,26,01,49,0.00
2008,12,26,01,50,1.60
2008,12,26,01,51,1.60
2008,12,26,01,52,1.60
2008,12,26,01,53,1.60
2008,12,26,01,54,3.20
2008,12,26,01,55,3.20
2008,12,26,01,56,1.60
2008,12,26,01,57,1.60
2008,12,26,01,58,1.60
2008,12,26,01,59,1.60
2008,12,26,02,00,3.20
2008,12,26,02,01,1.60
2008,12,26,02,02,1.60
2008,12,26,02,03,0.00
2008,12,26,02,04,0.00
2008,12,26,02,05,0.00
2008,12,26,02,06,1.60
2008,12,26,02,07,0.00
2008,12,26,02,08,0.00
2008,12,26,02,09,0.00
2008,12,26,02,10,0.00
2008,12,26,02,11,0.00
2008,12,26,02,12,0.00
2008,12,26,02,13,0.00
2008,12,26,02,14,0.00
2008,12,26,02,15,0.00
2008,12,26,02,16,0.00
2008,12,26,02,17,1.60
2008,12,26,02,18,0.00
2008,12,26,02,19,0.00
2008,12,26,02,20,4.80
2008,12,26,02,21,3.20
2008,12,26,02,22,3.20
2008,12,26,02,23,3.20
2008,12,26,02,24,1.60
2008,12,26,02,25,1.60
2008,12,26,02,26,0.00
2008,12,26,02,27,0.00
2008,12,26,02,28,0.00
2008,12,26,02,29,0.00
2008,12,26,02,30,0.00
2008,12,26,02,31,0.00
2008,12,26,02,32,0.00
2008,12,26,02,33,0.00
2008,12,26,02,34,0.00
2008,12,26,02,35,1.60
2008,12,26,02,36,3.20
2008,12,26,02,37,3.20
2008,12,26,02,38,3.20
2008,12,26,02,39,4.80
2008,12,26,02,40,3.20
2008,12,26,02,41,1.60
2008,12,26,02,42,0.00
2008,12,26,02,43,4.80
2008,12,26,02,44,4.80
2008,12,26,02,45,4.80
2008,12,26,02,46,4.80
2008,12,26,02,47,3.20
2008,12,26,02,48,3.20
2008,12,26,02,49,3.20
2008,12,26,02,50,3.20
2008,12,26,02,51,3.20
2008,12,26,02,52,3.20
2008,12,26,02,53,3.20
2008,12,26,02,54,4.80
2008,12,26,02,55,4.80
2008,12,26,02,56,6.40
2008,12,26,02,57,6.40
2008,12,26,02,58,4.80
2008,12,26,02,59,3.20
2008,12,26,03,00,6.40
2008,12,26,03,01,4.80
2008,12,26,03,02,4.80
2008,12,26,03,03,3.20
2008,12,26,03,04,1.60
2008,12,26,03,05,1.60
2008,12,26,03,06,1.60
2008,12,26,03,07,3.20
2008,12,26,03,08,3.20
2008,12,26,03,09,1.60
2008,12,26,03,10,4.80
2008,12,26,03,11,4.80
2008,12,26,03,12,3.20
2008,12,26,03,13,3.20
2008,12,26,03,14,0.00
2008,12,26,03,15,1.60
2008,12,26,03,16,1.60
2008,12,26,03,17,4.80
2008,12,26,03,18,1.60
2008,12,26,03,19,3.20
2008,12,26,03,20,1.60
2008,12,26,03,21,1.60
2008,12,26,03,22,4.80
2008,12,26,03,23,3.20
2008,12,26,03,24,3.20
2008,12,26,03,25,3.20
2008,12,26,03,26,3.20
2008,12,26,03,27,4.80
2008,12,26,03,28,3.20
2008,12,26,03,29,4.80
2008,12,26,03,30,4.80
2008,12,26,03,31,4.80
2008,12,26,03,32,3.20
2008,12,26,03,33,4.80
2008,12,26,03,34,4.80
2008,12,26,03,35,4.80
2008,12,26,03,36,4.80
2008,12,26,03,37,3.20
2008,12,26,03,38,1.60
2008,12,26,03,39,0.00
2008,12,26,03,40,0.00
2008,12,26,03,41,0.00
2008,12,26,03,42,0.00
2008,12,26,03,43,1.60
2008,12,26,03,44,1.60
2008,12,26,03,45,1.60
2008,12,26,03,46,1.60
2008,12,26,03,47,1.60
2008,12,26,03,48,3.20
2008,12,26,03,49,0.00
2008,12,26,03,50,3.20
2008,12,26,03,51,3.20
2008,12,26,03,52,1.60
2008,12,26,03,53,1.60
2008,12,26,03,54,1.60
2008,12,26,03,55,1.60
2008,12,26,03,56,1.60
2008,12,26,03,57,3.20
2008,12,26,03,58,4.80
2008,12,26,03,59,4.80
2008,12,26,04,00,4.80
2008,12,26,04,01,4.80
2008,12,26,04,02,4.80
2008,12,26,04,03,1.60
2008,12,26,04,04,1.60
2008,12,26,04,05,3.20
2008,12,26,04,06,3.20
2008,12,26,04,07,0.00
2008,12,26,04,08,1.60
2008,12,26,04,09,3.20
2008,12,26,04,10,1.60
2008,12,26,04,11,1.60
2008,12,26,04,12,3.20
2008,12,26,04,13,4.80
2008,12,26,04,14,3.20
2008,12,26,04,15,1.60
2008,12,26,04,16,3.20
2008,12,26,04,17,3.20
2008,12,26,04,18,3.20
2008,12,26,04,19,3.20
2008,12,26,04,20,3.20
2008,12,26,04,21,3.20
2008,12,26,04,22,4.80
2008,12,26,04,23,3.20
2008,12,26,04,24,3.20
2008,12,26,04,25,6.40
2008,12,26,04,26,4.80
2008,12,26,04,27,4.80
2008,12,26,04,28,6.40
2008,12,26,04,29,6.40
2008,12,26,04,30,4.80
2008,12,26,04,31,4.80
2008,12,26,04,32,3.20
2008,12,26,04,33,6.40
2008,12,26,04,34,6.40
2008,12,26,04,35,4.80
2008,12,26,04,36,6.40
2008,12,26,04,37,4.80
2008,12,26,04,38,4.80
2008,12,26,04,39,6.40
2008,12,26,04,40,4.80
2008,12,26,04,41,4.80
2008,12,26,04,42,4.80
2008,12,26,04,43,4.80
2008,12,26,04,44,1.60
2008,12,26,04,45,4.80
2008,12,26,04,46,4.80
2008,12,26,04,47,4.80
2008,12,26,04,48,4.80
2008,12,26,04,49,1.60
2008,12,26,04,50,1.60
2008,12,26,04,51,4.80
2008,12,26,04,52,4.80
2008,12,26,04,53,6.40
2008,12,26,04,54,4.80
2008,12,26,04,55,4.80
2008,12,26,04,56,3.20
2008,12,26,04,57,3.20
2008,12,26,04,58,6.40
2008,12,26,04,59,6.40
2008,12,26,05,00,4.80
2008,12,26,05,01,4.80
2008,12,26,05,02,4.80
2008,12,26,05,03,4.80
2008,12,26,05,04,3.20
2008,12,26,05,05,8.10
2008,12,26,05,06,3.20
2008,12,26,05,07,3.20
2008,12,26,05,08,1.60
2008,12,26,05,09,3.20
2008,12,26,05,10,1.60
2008,12,26,05,11,3.20
2008,12,26,05,12,4.80
2008,12,26,05,13,3.20
2008,12,26,05,14,3.20
2008,12,26,05,15,1.60
2008,12,26,05,16,4.80
2008,12,26,05,17,4.80
2008,12,26,05,18,4.80
2008,12,26,05,19,3.20
2008,12,26,05,20,1.60
2008,12,26,05,21,3.20
2008,12,26,05,22,3.20
2008,12,26,05,23,3.20
2008,12,26,05,24,1.60
2008,12,26,05,25,3.20
2008,12,26,05,26,3.20
2008,12,26,05,27,3.20
2008,12,26,05,28,4.80
2008,12,26,05,29,4.80
2008,12,26,05,30,1.60
2008,12,26,05,31,0.00
2008,12,26,05,32,3.20
2008,12,26,05,33,3.20
2008,12,26,05,34,3.20
2008,12,26,05,35,3.20
2008,12,26,05,36,3.20
2008,12,26,05,37,3.20
2008,12,26,05,38,4.80
2008,12,26,05,39,6.40
2008,12,26,05,40,3.20
2008,12,26,05,41,4.80
2008,12,26,05,42,4.80
2008,12,26,05,43,6.40
2008,12,26,05,44,6.40
2008,12,26,05,45,3.20
2008,12,26,05,46,4.80
2008,12,26,05,47,4.80
2008,12,26,05,48,4.80
2008,12,26,05,49,6.40
2008,12,26,05,50,4.80
2008,12,26,05,51,4.80
2008,12,26,05,52,6.40
2008,12,26,05,53,6.40
2008,12,26,05,54,6.40
2008,12,26,05,55,4.80
2008,12,26,05,56,4.80
2008,12,26,05,57,4.80
2008,12,26,05,58,8.10
2008,12,26,05,59,4.80
2008,12,26,06,00,4.80
2008,12,26,06,01,3.20
2008,12,26,06,02,0.00
2008,12,26,06,03,0.00
2008,12,26,06,04,0.00
2008,12,26,06,05,0.00
2008,12,26,06,06,0.00
2008,12,26,06,07,1.60
2008,12,26,06,08,3.20
2008,12,26,06,09,0.00
2008,12,26,06,10,0.00
2008,12,26,06,11,0.00
2008,12,26,06,12,0.00
2008,12,26,06,13,3.20
2008,12,26,06,14,1.60
2008,12,26,06,15,0.00
2008,12,26,06,16,0.00
2008,12,26,06,17,0.00
2008,12,26,06,18,0.00
2008,12,26,06,19,0.00
2008,12,26,06,20,1.60
2008,12,26,06,21,3.20
2008,12,26,06,22,3.20
2008,12,26,06,23,1.60
2008,12,26,06,24,0.00
2008,12,26,06,25,1.60
2008,12,26,06,26,3.20
2008,12,26,06,27,3.20
2008,12,26,06,28,0.00
2008,12,26,06,29,0.00
2008,12,26,06,30,0.00
2008,12,26,06,31,0.00
2008,12,26,06,32,0.00
2008,12,26,06,33,0.00
2008,12,26,06,34,0.00
2008,12,26,06,35,0.00
2008,12,26,06,36,0.00
2008,12,26,06,37,0.00
2008,12,26,06,38,0.00
2008,12,26,06,39,1.60
2008,12,26,06,40,1.60
2008,12,26,06,41,0.00
2008,12,26,06,42,0.00
2008,12,26,06,43,0.00
2008,12,26,06,44,1.60
2008,12,26,06,45,3.20
2008,12,26,06,46,3.20
2008,12,26,06,47,4.80
2008,12,26,06,48,4.80
2008,12,26,06,49,4.80
2008,12,26,06,50,3.20
2008,12,26,06,51,3.20
2008,12,26,06,52,0.00
2008,12,26,06,53,0.00
2008,12,26,06,54,0.00
2008,12,26,06,55,1.60
2008,12,26,06,56,1.60
2008,12,26,06,57,3.20
2008,12,26,06,58,4.80
2008,12,26,06,59,4.80
2008,12,26,07,00,3.20
2008,12,26,07,01,3.20
2008,12,26,07,02,4.80
2008,12,26,07,03,4.80
2008,12,26,07,04,4.80
2008,12,26,07,05,3.20
2008,12,26,07,06,3.20
2008,12,26,07,07,3.20
2008,12,26,07,08,3.20
2008,12,26,07,09,3.20
2008,12,26,07,10,3.20
2008,12,26,07,11,3.20
2008,12,26,07,12,1.60
2008,12,26,07,13,1.60
2008,12,26,07,14,1.60
2008,12,26,07,15,3.20
2008,12,26,07,16,3.20
2008,12,26,07,17,3.20
2008,12,26,07,18,3.20
2008,12,26,07,19,1.60
2008,12,26,07,20,3.20
2008,12,26,07,21,1.60
2008,12,26,07,22,1.60
2008,12,26,07,23,1.60
2008,12,26,07,24,1.60
2008,12,26,07,25,1.60
2008,12,26,07,26,1.60
2008,12,26,07,27,1.60
2008,12,26,07,28,4.80
2008,12,26,07,29,4.80
2008,12,26,07,30,4.80
2008,12,26,07,31,3.20
2008,12,26,07,32,0.00
2008,12,26,07,33,1.60
2008,12,26,07,34,3.20
2008,12,26,07,35,3.20
2008,12,26,07,36,3.20
2008,12,26,07,37,4.80
2008,12,26,07,38,4.80
2008,12,26,07,39,4.80
2008,12,26,07,40,4.80
2008,12,26,07,41,3.20
2008,12,26,07,42,4.80
2008,12,26,07,43,3.20
2008,12,26,07,44,3.20
2008,12,26,07,45,1.60
2008,12,26,07,46,0.00
2008,12,26,07,47,1.60
2008,12,26,07,48,1.60
2008,12,26,07,49,1.60
2008,12,26,07,50,0.00
2008,12,26,07,51,1.60
2008,12,26,07,52,0.00
2008,12,26,07,53,3.20
2008,12,26,07,54,4.80
2008,12,26,07,55,4.80
2008,12,26,07,56,3.20
2008,12,26,07,57,1.60
2008,12,26,07,58,0.00
2008,12,26,07,59,0.00
2008,12,26,08,00,0.00
2008,12,26,08,01,0.00
2008,12,26,08,02,0.00
2008,12,26,08,03,1.60
2008,12,26,08,04,3.20
2008,12,26,08,05,4.80
2008,12,26,08,06,3.20
2008,12,26,08,07,3.20
2008,12,26,08,08,3.20
2008,12,26,08,09,3.20
2008,12,26,08,10,3.20
2008,12,26,08,11,4.80
2008,12,26,08,12,3.20
2008,12,26,08,13,3.20
2008,12,26,08,14,1.60
2008,12,26,08,15,1.60
2008,12,26,08,16,0.00
2008,12,26,08,17,0.00
2008,12,26,08,18,1.60
2008,12,26,08,19,1.60
2008,12,26,08,20,3.20
2008,12,26,08,21,1.60
2008,12,26,08,22,0.00
2008,12,26,08,23,4.80
2008,12,26,08,24,1.60
2008,12,26,08,25,1.60
2008,12,26,08,26,1.60
2008,12,26,08,27,1.60
2008,12,26,08,28,1.60
2008,12,26,08,29,1.60
2008,12,26,08,30,3.20
2008,12,26,08,31,3.20
2008,12,26,08,32,1.60
2008,12,26,08,33,1.60
2008,12,26,08,34,3.20
2008,12,26,08,35,3.20
2008,12,26,08,36,4.80
2008,12,26,08,37,4.80
2008,12,26,08,38,4.80
2008,12,26,08,39,3.20
2008,12,26,08,40,3.20
2008,12,26,08,41,4.80
2008,12,26,08,42,3.20
2008,12,26,08,43,1.60
2008,12,26,08,44,1.60
2008,12,26,08,45,3.20
2008,12,26,08,46,3.20
2008,12,26,08,47,3.20
2008,12,26,08,48,4.80
2008,12,26,08,49,3.20
2008,12,26,08,50,3.20
2008,12,26,08,51,4.80
2008,12,26,08,52,3.20
2008,12,26,08,53,0.00
2008,12,26,08,54,1.60
2008,12,26,08,55,0.00
2008,12,26,08,56,0.00
2008,12,26,08,57,0.00
2008,12,26,08,58,0.00
2008,12,26,08,59,0.00
2008,12,26,09,00,0.00
2008,12,26,09,01,0.00
2008,12,26,09,02,0.00
2008,12,26,09,03,1.60
2008,12,26,09,04,1.60
2008,12,26,09,05,1.60
2008,12,26,09,06,1.60
2008,12,26,09,07,1.60
2008,12,26,09,08,1.60
2008,12,26,09,09,4.80
2008,12,26,09,10,4.80
2008,12,26,09,11,3.20
2008,12,26,09,12,3.20
2008,12,26,09,13,1.60
2008,12,26,09,14,1.60
2008,12,26,09,15,1.60
2008,12,26,09,16,3.20
2008,12,26,09,17,1.60
2008,12,26,09,18,0.00
2008,12,26,09,19,0.00
2008,12,26,09,20,0.00
2008,12,26,09,21,1.60
2008,12,26,09,22,1.60
2008,12,26,09,23,0.00
2008,12,26,09,24,0.00
2008,12,26,09,25,0.00
2008,12,26,09,26,1.60
2008,12,26,09,27,1.60
2008,12,26,09,28,1.60
2008,12,26,09,29,1.60
2008,12,26,09,30,1.60
2008,12,26,09,31,1.60
2008,12,26,09,32,0.00
2008,12,26,09,33,0.00
2008,12,26,09,34,0.00
2008,12,26,09,35,0.00
2008,12,26,09,36,0.00
2008,12,26,09,37,0.00
2008,12,26,09,38,0.00
2008,12,26,09,39,0.00
2008,12,26,09,40,0.00
2008,12,26,09,41,0.00
2008,12,26,09,42,0.00
2008,12,26,09,43,0.00
2008,12,26,09,44,0.00
2008,12,26,09,45,0.00
2008,12,26,09,46,0.00
2008,12,26,09,47,0.00
2008,12,26,09,48,0.00
2008,12,26,09,49,0.00
2008,12,26,09,50,0.00
2008,12,26,09,51,0.00
2008,12,26,09,52,0.00
2008,12,26,09,53,0.00
2008,12,26,09,54,0.00
2008,12,26,09,55,0.00
2008,12,26,09,56,0.00
2008,12,26,09,57,0.00
2008,12,26,09,58,0.00
2008,12,26,09,59,0.00
2008,12,26,10,00,0.00
2008,12,26,10,01,0.00
2008,12,26,10,02,0.00
2008,12,26,10,03,0.00
2008,12,26,10,04,0.00
2008,12,26,10,05,0.00
2008,12,26,10,06,0.00
2008,12,26,10,07,0.00
2008,12,26,10,08,0.00
2008,12,26,10,09,3.20
2008,12,26,10,10,4.80
2008,12,26,10,11,3.20
2008,12,26,10,12,1.60
2008,12,26,10,13,1.60
2008,12,26,10,14,1.60
2008,12,26,10,15,1.60
2008,12,26,10,16,0.00
2008,12,26,10,17,0.00
2008,12,26,10,18,0.00
2008,12,26,10,19,0.00
2008,12,26,10,20,0.00
2008,12,26,10,21,0.00
2008,12,26,10,22,0.00
2008,12,26,10,23,0.00
2008,12,26,10,24,0.00
2008,12,26,10,25,0.00
2008,12,26,10,26,0.00
2008,12,26,10,27,0.00
2008,12,26,10,28,0.00
2008,12,26,10,29,1.60
2008,12,26,10,30,0.00
2008,12,26,10,31,1.60
2008,12,26,10,32,1.60
2008,12,26,10,33,1.60
2008,12,26,10,34,1.60
2008,12,26,10,35,0.00
2008,12,26,10,36,1.60
2008,12,26,10,37,3.20
2008,12,26,10,38,3.20
2008,12,26,10,39,3.20
2008,12,26,10,40,0.00
2008,12,26,10,41,0.00
2008,12,26,10,42,0.00
2008,12,26,10,43,0.00
2008,12,26,10,44,0.00
2008,12,26,10,45,1.60
2008,12,26,10,46,1.60
2008,12,26,10,47,3.20
2008,12,26,10,48,1.60
2008,12,26,10,49,0.00
2008,12,26,10,50,0.00
2008,12,26,10,51,0.00
2008,12,26,10,52,0.00
2008,12,26,10,53,0.00
2008,12,26,10,54,0.00
2008,12,26,10,55,0.00
2008,12,26,10,56,0.00
2008,12,26,10,57,0.00
2008,12,26,10,58,1.60
2008,12,26,10,59,1.60
2008,12,26,11,00,3.20
2008,12,26,11,01,0.00
2008,12,26,11,02,1.60
2008,12,26,11,03,0.00
2008,12,26,11,04,0.00
2008,12,26,11,05,0.00
2008,12,26,11,06,0.00
2008,12,26,11,07,0.00
2008,12,26,11,08,0.00
2008,12,26,11,09,0.00
2008,12,26,11,10,0.00
2008,12,26,11,11,0.00
2008,12,26,11,12,0.00
2008,12,26,11,13,0.00
2008,12,26,11,14,0.00
2008,12,26,11,15,0.00
2008,12,26,11,16,0.00
2008,12,26,11,17,0.00
2008,12,26,11,18,1.60
2008,12,26,11,19,0.00
2008,12,26,11,20,0.00
2008,12,26,11,21,0.00
2008,12,26,11,22,0.00
2008,12,26,11,23,0.00
2008,12,26,11,24,1.60
2008,12,26,11,25,1.60
2008,12,26,11,26,0.00
2008,12,26,11,27,0.00
2008,12,26,11,28,0.00
2008,12,26,11,29,0.00
2008,12,26,11,30,0.00
2008,12,26,11,31,0.00
2008,12,26,11,32,0.00
2008,12,26,11,33,0.00
2008,12,26,11,34,0.00
2008,12,26,11,35,0.00
2008,12,26,11,36,1.60
2008,12,26,11,37,3.20
2008,12,26,11,38,0.00
2008,12,26,11,39,0.00
2008,12,26,11,40,0.00
2008,12,26,11,41,1.60
2008,12,26,11,42,6.40
2008,12,26,11,43,4.80
2008,12,26,11,44,8.10
2008,12,26,11,45,6.40
2008,12,26,11,46,1.60
2008,12,26,11,47,0.00
2008,12,26,11,48,0.00
2008,12,26,11,49,0.00
2008,12,26,11,50,0.00
2008,12,26,11,51,1.60
2008,12,26,11,52,0.00
2008,12,26,11,53,4.80
2008,12,26,11,54,3.20
2008,12,26,11,55,1.60
2008,12,26,11,56,3.20
2008,12,26,11,57,4.80
2008,12,26,11,58,0.00
2008,12,26,11,59,4.80
2008,12,26,12,00,8.10
2008,12,26,12,01,4.80
2008,12,26,12,02,6.40
2008,12,26,12,03,3.20
2008,12,26,12,04,0.00
2008,12,26,12,05,0.00
2008,12,26,12,06,1.60
2008,12,26,12,07,3.20
2008,12,26,12,08,1.60
2008,12,26,12,09,8.10
2008,12,26,12,10,9.60
2008,12,26,12,11,4.80
2008,12,26,12,12,4.80
2008,12,26,12,13,3.20
2008,12,26,12,14,3.20
2008,12,26,12,15,3.20
2008,12,26,12,16,3.20
2008,12,26,12,17,4.80
2008,12,26,12,18,1.60
2008,12,26,12,19,0.00
2008,12,26,12,20,9.60
2008,12,26,12,21,9.60
2008,12,26,12,22,3.20
2008,12,26,12,23,6.40
2008,12,26,12,24,8.10
2008,12,26,12,25,4.80
2008,12,26,12,26,3.20
2008,12,26,12,27,6.40
2008,12,26,12,28,8.10
2008,12,26,12,29,8.10
2008,12,26,12,30,3.20
2008,12,26,12,31,4.80
2008,12,26,12,32,3.20
2008,12,26,12,33,4.80
2008,12,26,12,34,6.40
2008,12,26,12,35,4.80
2008,12,26,12,36,9.60
2008,12,26,12,37,9.60
2008,12,26,12,38,8.10
2008,12,26,12,39,4.80
2008,12,26,12,40,11.30
2008,12,26,12,41,6.40
2008,12,26,12,42,4.80
2008,12,26,12,43,6.40
2008,12,26,12,44,3.20
2008,12,26,12,45,3.20
2008,12,26,12,46,3.20
2008,12,26,12,47,4.80
2008,12,26,12,48,3.20
2008,12,26,12,49,4.80
2008,12,26,12,50,4.80
2008,12,26,12,51,3.20
2008,12,26,12,52,3.20
2008,12,26,12,53,4.80
2008,12,26,12,54,3.20
2008,12,26,12,55,6.40
2008,12,26,12,56,6.40
2008,12,26,12,57,11.30
2008,12,26,12,58,16.10
2008,12,26,12,59,11.30
2008,12,26,13,00,14.50
2008,12,26,13,01,8.10
2008,12,26,13,02,11.30
2008,12,26,13,03,9.60
2008,12,26,13,04,14.50
2008,12,26,13,05,11.30
2008,12,26,13,06,11.30
2008,12,26,13,07,11.30
2008,12,26,13,08,8.10
2008,12,26,13,09,8.10
2008,12,26,13,10,6.40
2008,12,26,13,11,9.60
2008,12,26,13,12,4.80
2008,12,26,13,13,8.10
2008,12,26,13,14,9.60
2008,12,26,13,15,9.60
2008,12,26,13,16,11.30
2008,12,26,13,17,16.10
2008,12,26,13,18,11.30
2008,12,26,13,19,9.60
2008,12,26,13,20,6.40
2008,12,26,13,21,8.10
2008,12,26,13,22,11.30
2008,12,26,13,23,17.70
2008,12,26,13,24,16.10
2008,12,26,13,25,9.60
2008,12,26,13,26,11.30
2008,12,26,13,27,17.70
2008,12,26,13,28,11.30
2008,12,26,13,29,12.90
2008,12,26,13,30,17.70
2008,12,26,13,31,16.10
2008,12,26,13,32,14.50
2008,12,26,13,33,12.90
2008,12,26,13,34,8.10
2008,12,26,13,35,11.30
2008,12,26,13,36,9.60
2008,12,26,13,37,6.40
2008,12,26,13,38,11.30
2008,12,26,13,39,14.50
2008,12,26,13,40,8.10
2008,12,26,13,41,3.20
2008,12,26,13,42,6.40
2008,12,26,13,43,16.10
2008,12,26,13,44,14.50
2008,12,26,13,45,11.30
2008,12,26,13,46,16.10
2008,12,26,13,47,14.50
2008,12,26,13,48,16.10
2008,12,26,13,49,14.50
2008,12,26,13,50,9.60
2008,12,26,13,51,9.60
2008,12,26,13,52,9.60
2008,12,26,13,53,11.30
2008,12,26,13,54,8.10
2008,12,26,13,55,6.40
2008,12,26,13,56,8.10
2008,12,26,13,57,6.40
2008,12,26,13,58,8.10
2008,12,26,13,59,14.50
2008,12,26,14,00,8.10
2008,12,26,14,01,17.70
2008,12,26,14,02,11.30
2008,12,26,14,03,8.10
2008,12,26,14,04,6.40
2008,12,26,14,05,6.40
2008,12,26,14,06,4.80
2008,12,26,14,07,16.10
2008,12,26,14,08,9.60
2008,12,26,14,09,6.40
2008,12,26,14,10,6.40
2008,12,26,14,11,6.40
2008,12,26,14,12,8.10
2008,12,26,14,13,6.40
2008,12,26,14,14,4.80
2008,12,26,14,15,6.40
2008,12,26,14,16,8.10
2008,12,26,14,17,3.20
2008,12,26,14,18,3.20
2008,12,26,14,19,11.30
2008,12,26,14,20,8.10
2008,12,26,14,21,11.30
2008,12,26,14,22,8.10
2008,12,26,14,23,9.60
2008,12,26,14,24,6.40
2008,12,26,14,25,6.40
2008,12,26,14,26,11.30
2008,12,26,14,27,17.70
2008,12,26,14,28,14.50
2008,12,26,14,29,11.30
2008,12,26,14,30,4.80
2008,12,26,14,31,8.10
2008,12,26,14,32,11.30
2008,12,26,14,33,14.50
2008,12,26,14,34,17.70
2008,12,26,14,35,11.30
2008,12,26,14,36,14.50
2008,12,26,14,37,8.10
2008,12,26,14,38,4.80
2008,12,26,14,39,8.10
2008,12,26,14,40,19.30
2008,12,26,14,41,14.50
2008,12,26,14,42,9.60
2008,12,26,14,43,8.10
2008,12,26,14,44,16.10
2008,12,26,14,45,9.60
2008,12,26,14,46,14.50
2008,12,26,14,47,17.70
2008,12,26,14,48,16.10
2008,12,26,14,49,11.30
2008,12,26,14,50,8.10
2008,12,26,14,51,9.60
2008,12,26,14,52,8.10
2008,12,26,14,53,4.80
2008,12,26,14,54,11.30
2008,12,26,14,55,9.60
2008,12,26,14,56,9.60
2008,12,26,14,57,6.40
2008,12,26,14,58,3.20
2008,12,26,14,59,6.40
2008,12,26,15,00,8.10
2008,12,26,15,01,19.30
2008,12,26,15,02,20.90
2008,12,26,15,03,17.70
2008,12,26,15,04,11.30
2008,12,26,15,05,8.10
2008,12,26,15,06,16.10
2008,12,26,15,07,9.60
2008,12,26,15,08,6.40
2008,12,26,15,09,14.50
2008,12,26,15,10,11.30
2008,12,26,15,11,11.30
2008,12,26,15,12,16.10
2008,12,26,15,13,11.30
2008,12,26,15,14,8.10
2008,12,26,15,15,6.40
2008,12,26,15,16,14.50
2008,12,26,15,17,11.30
2008,12,26,15,18,11.30
2008,12,26,15,19,12.90
2008,12,26,15,20,14.50
2008,12,26,15,21,11.30
2008,12,26,15,22,9.60
2008,12,26,15,23,8.10
2008,12,26,15,24,9.60
2008,12,26,15,25,8.10
2008,12,26,15,26,17.70
2008,12,26,15,27,16.10
2008,12,26,15,28,9.60
2008,12,26,15,29,6.40
2008,12,26,15,30,11.30
2008,12,26,15,31,11.30
2008,12,26,15,32,19.30
2008,12,26,15,33,16.10
2008,12,26,15,34,16.10
2008,12,26,15,35,6.40
2008,12,26,15,36,9.60
2008,12,26,15,37,16.10
2008,12,26,15,38,16.10
2008,12,26,15,39,14.50
2008,12,26,15,40,8.10
2008,12,26,15,41,16.10
2008,12,26,15,42,14.50
2008,12,26,15,43,16.10
2008,12,26,15,44,14.50
2008,12,26,15,45,14.50
2008,12,26,15,46,8.10
2008,12,26,15,47,8.10
2008,12,26,15,48,11.30
2008,12,26,15,49,8.10
2008,12,26,15,50,3.20
2008,12,26,15,51,16.10
2008,12,26,15,52,16.10
2008,12,26,15,53,14.50
2008,12,26,15,54,14.50
2008,12,26,15,55,11.30
2008,12,26,15,56,6.40
2008,12,26,15,57,9.60
2008,12,26,15,58,16.10
2008,12,26,15,59,17.70
2008,12,26,16,00,6.40
2008,12,26,16,01,6.40
2008,12,26,16,02,8.10
2008,12,26,16,03,4.80
2008,12,26,16,04,6.40
2008,12,26,16,05,1.60
2008,12,26,16,06,14.50
2008,12,26,16,07,6.40
2008,12,26,16,08,6.40
2008,12,26,16,09,9.60
2008,12,26,16,10,6.40
2008,12,26,16,11,11.30
2008,12,26,16,12,4.80
2008,12,26,16,13,6.40
2008,12,26,16,14,8.10
2008,12,26,16,15,6.40
2008,12,26,16,16,9.60
2008,12,26,16,17,8.10
2008,12,26,16,18,9.60
2008,12,26,16,19,6.40
2008,12,26,16,20,1.60
2008,12,26,16,21,9.60
2008,12,26,16,22,8.10
2008,12,26,16,23,9.60
2008,12,26,16,24,9.60
2008,12,26,16,25,4.80
2008,12,26,16,26,4.80
2008,12,26,16,27,4.80
2008,12,26,16,28,4.80
2008,12,26,16,29,6.40
2008,12,26,16,30,6.40
2008,12,26,16,31,1.60
2008,12,26,16,32,0.00
2008,12,26,16,33,4.80
2008,12,26,16,34,4.80
2008,12,26,16,35,4.80
2008,12,26,16,36,3.20
2008,12,26,16,37,3.20
2008,12,26,16,38,4.80
2008,12,26,16,39,6.40
2008,12,26,16,40,6.40
2008,12,26,16,41,6.40
2008,12,26,16,42,8.10
2008,12,26,16,43,4.80
2008,12,26,16,44,4.80
2008,12,26,16,45,3.20
2008,12,26,16,46,6.40
2008,12,26,16,47,8.10
2008,12,26,16,48,8.10
2008,12,26,16,49,9.60
2008,12,26,16,50,8.10
2008,12,26,16,51,9.60
2008,12,26,16,52,6.40
2008,12,26,16,53,6.40
2008,12,26,16,54,4.80
2008,12,26,16,55,6.40
2008,12,26,16,56,9.60
2008,12,26,16,57,8.10
2008,12,26,16,58,8.10
2008,12,26,16,59,12.90
2008,12,26,17,00,11.30
2008,12,26,17,01,11.30
2008,12,26,17,02,8.10
2008,12,26,17,03,4.80
2008,12,26,17,04,9.60
2008,12,26,17,05,9.60
2008,12,26,17,06,11.30
2008,12,26,17,07,9.60
2008,12,26,17,08,9.60
2008,12,26,17,09,11.30
2008,12,26,17,10,11.30
2008,12,26,17,11,8.10
2008,12,26,17,12,8.10
2008,12,26,17,13,8.10
2008,12,26,17,14,9.60
2008,12,26,17,15,11.30
2008,12,26,17,16,9.60
2008,12,26,17,17,8.10
2008,12,26,17,18,8.10
2008,12,26,17,19,8.10
2008,12,26,17,20,8.10
2008,12,26,17,21,9.60
2008,12,26,17,22,8.10
2008,12,26,17,23,8.10
2008,12,26,17,24,8.10
2008,12,26,17,25,8.10
2008,12,26,17,26,8.10
2008,12,26,17,27,8.10
2008,12,26,17,28,9.60
2008,12,26,17,29,9.60
2008,12,26,17,30,6.40
2008,12,26,17,31,9.60
2008,12,26,17,32,9.60
2008,12,26,17,33,8.10
2008,12,26,17,34,9.60
2008,12,26,17,35,9.60
2008,12,26,17,36,11.30
2008,12,26,17,37,9.60
2008,12,26,17,38,9.60
2008,12,26,17,39,8.10
2008,12,26,17,40,11.30
2008,12,26,17,41,9.60
2008,12,26,17,42,8.10
2008,12,26,17,43,9.60
2008,12,26,17,44,9.60
2008,12,26,17,45,11.30
2008,12,26,17,46,9.60
2008,12,26,17,47,8.10
2008,12,26,17,48,8.10
2008,12,26,17,49,6.40
2008,12,26,17,50,6.40
2008,12,26,17,51,9.60
2008,12,26,17,52,9.60
2008,12,26,17,53,8.10
2008,12,26,17,54,9.60
2008,12,26,17,55,8.10
2008,12,26,17,56,9.60
2008,12,26,17,57,6.40
2008,12,26,17,58,11.30
2008,12,26,17,59,11.30
2008,12,26,18,00,9.60
2008,12,26,18,01,9.60